Location: Huesca
(42.1318°N, 0.4078°W)
Time: 19:46:50
(UTC+02:00)

DIWATA 2B (PO-101) - Pass Details

Date: 24 April 2024
Orbit: 575 x 589 km, 98.1° (Epoch: 20 May)

Event Time Altitude Azimuth Distance (km) Brightness Sun altitude
Exits shadow 05:18:25 - 162° (SSE) 2,102 ? -18.5°
Reaches altitude 10° 05:18:52 10° 162° (SSE) 1,913 ? -18.4°
Maximum altitude 05:23:01 79° 76° (ENE) 606 ? -17.8°
Drops below altitude 10° 05:27:12 10° 350° (N) 1,925 ? -17.2°
Sets 05:29:22 0° 349° (N) 2,830 ? -16.9°
